Location: *
(45.1961°N, 1.9694°E)
Time: 18:27:17
(UTC+00:00)

Cosmos 1674 Rocket - Pass Details

Date: 25 August 2019
Orbit: 603 x 630 km, 82.5° (Epoch: 13 October)

Event Time Altitude Azimuth Distance (km) Brightness Sun altitude
Rises 19:18:59 0° 358° (N) 2,883 7.3 -6.8°
Reaches altitude 10° 19:21:22 10° 8° (N) 1,970 6.4 -7.2°
Maximum altitude 19:25:24 36° 75° (ENE) 973 4.2 -7.9°
Drops below altitude 10° 19:29:22 10° 142° (SE) 1,946 5.6 -8.5°
Enters shadow 19:29:59 - 145° (SE) 2,174 5.8 -8.6°
